Flag for Turkey Weather past 2 weeks in Gaziantep, Turkey

Now
68 °F

Passing clouds.


Feels Like: 68 °F
Forecast: 58 / 82 °F
Wind: 3 mph from Southwest

Location: Gaziantep Airport

Current Time: Sep 19, 2014 at 11:04:55 PM

Latest Report: Sep 19, 2014 at 10:20 PM


Visibility: N/A

Pressure: 29.95 "Hg

Humidity: 60%

Dew point: 54 °F

Location of GaziantepLocation

Historic Weather in Gaziantep — Graph

°F

Gaziantep temperature yesterday

Maximum temperature yesterday: 81 °F (at 1:50 PM)
Minimum temperature yesterday: 57 °F (at 3:20 AM)
Average temperature yesterday: 70 °F

Past Weeks' High & Low Weather Summary

 TemperatureHumidityPressure
High93 °F (Sep 5, 1:50 PM)88% (Sep 17, 4:50 AM)30.01 "Hg (Sep 17, 4:50 AM)
Low55 °F (Sep 19, 4:50 AM)16% (Sep 13, 3:50 PM)29.68 "Hg (Sep 5, 3:20 PM)
Average76 °F50%29.85 "Hg
* Reported Sep 4 9:20 PM — Sep 19 9:50 PM, Gaziantep, Weather by CustomWeather, © 2014

Note: Actual official high and low records may vary slightly from our data, if they occured in-between our weather recording intervals... More about our weather records

Advertising

Gaziantep weather history for previous 24 hours

 ConditionsComfort  
Time TempWeatherWind HumidityBarometerVisibility
9:50 PM
Sep 19
70 °FPassing clouds.6 mph53%29.95 "HgN/A
9:20 PM72 °FPassing clouds.9 mph50%29.95 "HgN/A
8:50 PM73 °FPassing clouds.10 mph50%29.95 "HgN/A
8:20 PM73 °FPassing clouds.10 mph50%29.95 "HgN/A
7:50 PM75 °FPassing clouds.9 mph47%29.95 "HgN/A
7:20 PM75 °FScattered clouds.12 mph47%29.92 "HgN/A
6:50 PM77 °FScattered clouds.12 mph44%29.92 "HgN/A
6:20 PM79 °FScattered clouds.10 mph39%29.92 "HgN/A
5:50 PM81 °FScattered clouds.9 mph28%29.92 "HgN/A
5:20 PM82 °FScattered clouds.9 mph25%29.92 "HgN/A
4:50 PM82 °FScattered clouds.10 mph26%29.92 "HgN/A
4:20 PM82 °FScattered clouds.9 mph26%29.92 "HgN/A
3:50 PM82 °FScattered clouds.8 mph26%29.92 "HgN/A
3:20 PM82 °FScattered clouds.9 mph28%29.95 "HgN/A
2:50 PM82 °FScattered clouds.8 mph28%29.95 "HgN/A
2:20 PM81 °FScattered clouds.7 mph32%29.95 "HgN/A
1:50 PM81 °FScattered clouds.8 mph32%29.98 "HgN/A
1:20 PM81 °FScattered clouds.7 mph30%29.98 "HgN/A
12:50 PM81 °FScattered clouds.3 mph32%29.98 "HgN/A
12:20 PM79 °FScattered clouds.1 mph39%30.01 "HgN/A
11:50 AM77 °FScattered clouds.3 mph44%30.01 "HgN/A
11:20 AM77 °FPassing clouds.7 mph44%30.01 "HgN/A
10:50 AM77 °FSunny.3 mph44%30.01 "Hg10 mi
10:20 AM75 °FPassing clouds.7 mph47%30.01 "HgN/A
9:50 AM73 °FPassing clouds.7 mph53%30.01 "HgN/A
9:20 AM73 °FPassing clouds.8 mph53%30.01 "HgN/A
8:50 AM70 °FSunny.8 mph60%30.01 "Hg10 mi
8:20 AM68 °FSunny.6 mph69%30.01 "Hg10 mi
7:50 AM64 °FSunny.No wind73%30.01 "Hg10 mi
7:20 AM61 °FSunny.No wind77%30.01 "Hg10 mi
6:50 AM57 °FClear.No wind82%29.98 "Hg10 mi
6:20 AM55 °FClear.No wind82%29.98 "Hg10 mi
5:50 AM57 °FClear.No wind77%29.98 "Hg10 mi
5:20 AM57 °FClear.No wind82%29.98 "Hg10 mi
4:50 AM55 °FClear.No wind82%29.98 "Hg10 mi
4:20 AM61 °FClear.5 mph68%29.98 "Hg10 mi
3:50 AM57 °FClear.No wind82%29.98 "Hg10 mi
3:20 AM59 °FClear.No wind77%29.98 "Hg10 mi
2:50 AM61 °FClear.No wind72%29.98 "Hg10 mi
2:20 AM61 °FClear.1 mph68%29.98 "Hg10 mi
1:50 AM59 °FClear.3 mph72%29.98 "Hg10 mi
1:20 AM61 °FClear.No wind68%29.98 "Hg10 mi
12:50 AM63 °FClear.3 mph64%29.98 "Hg10 mi
12:20 AM63 °FClear.3 mph64%29.98 "Hg10 mi
11:50 PM
Sep 18
64 °FClear.No wind64%29.98 "Hg10 mi
11:20 PM66 °FClear.No wind60%29.98 "Hg10 mi
Weather by CustomWeather, © 2014

See weather overviewHow to use our weather pages